Time,TemperatureF,DewpointF,PressureIn,WindDirection,WindDirectionDegrees,WindSpeedMPH,WindSpeedGustMPH,Humidity,HourlyPrecipIn,Conditions,Clouds,dailyrainin,SoftwareType,DateUTC
2017-04-25 00:01:00,45.7,30.0,29.93,North,0,0.0,0.0,54,0.00,,,0.00,WUHU216HW,2017-04-25 07:01:00,
2017-04-25 00:06:00,45.7,29.1,29.93,North,0,0.0,0.0,52,0.00,,,0.00,WUHU216HW,2017-04-25 07:06:00,
2017-04-25 00:11:00,45.7,29.5,29.93,North,0,0.0,0.0,53,0.00,,,0.00,WUHU216HW,2017-04-25 07:11:00,
2017-04-25 00:16:00,45.7,29.5,29.93,North,0,0.0,0.0,53,0.00,,,0.00,WUHU216HW,2017-04-25 07:16:00,
2017-04-25 00:21:00,45.5,28.9,29.93,North,0,0.0,0.0,52,0.00,,,0.00,WUHU216HW,2017-04-25 07:21:00,
2017-04-25 00:26:00,45.4,28.7,29.93,North,0,0.0,0.0,52,0.00,,,0.00,WUHU216HW,2017-04-25 07:26:00,
2017-04-25 00:31:00,45.4,27.8,29.93,North,0,0.0,0.0,50,0.00,,,0.00,WUHU216HW,2017-04-25 07:31:00,
2017-04-25 00:36:00,45.4,28.3,29.93,North,0,0.0,0.0,51,0.00,,,0.00,WUHU216HW,2017-04-25 07:36:00,
2017-04-25 00:41:00,45.2,28.1,29.93,North,0,0.0,0.0,51,0.00,,,0.00,WUHU216HW,2017-04-25 07:41:00,
2017-04-25 00:46:00,45.0,28.5,29.93,North,0,0.0,0.0,52,0.00,,,0.00,WUHU216HW,2017-04-25 07:46:00,
2017-04-25 00:51:00,45.0,28.5,29.93,North,0,0.0,0.0,52,0.00,,,0.00,WUHU216HW,2017-04-25 07:51:00,
2017-04-25 00:56:00,44.8,28.7,29.93,North,0,0.0,0.0,53,0.00,,,0.00,WUHU216HW,2017-04-25 07:56:00,
2017-04-25 01:01:00,44.6,28.5,29.93,North,0,0.0,0.0,53,0.00,,,0.00,WUHU216HW,2017-04-25 08:01:00,
2017-04-25 01:06:00,44.6,28.5,29.93,North,0,0.0,0.0,53,0.00,,,0.00,WUHU216HW,2017-04-25 08:06:00,
2017-04-25 01:11:00,44.5,28.8,29.93,North,0,0.0,0.0,54,0.00,,,0.00,WUHU216HW,2017-04-25 08:11:00,
2017-04-25 01:16:00,44.3,28.6,29.94,North,0,0.0,0.0,54,0.00,,,0.00,WUHU216HW,2017-04-25 08:16:00,
2017-04-25 01:21:00,44.1,28.9,29.93,North,0,0.0,0.0,55,0.00,,,0.00,WUHU216HW,2017-04-25 08:21:00,
2017-04-25 01:26:00,43.9,28.7,29.93,North,0,0.0,0.0,55,0.00,,,0.00,WUHU216HW,2017-04-25 08:26:00,
2017-04-25 01:31:00,43.9,28.7,29.94,North,0,0.0,0.0,55,0.00,,,0.00,WUHU216HW,2017-04-25 08:31:00,
2017-04-25 01:36:00,43.7,28.6,29.94,North,0,0.0,0.0,55,0.00,,,0.00,WUHU216HW,2017-04-25 08:36:00,
2017-04-25 01:41:00,43.7,28.2,29.94,North,0,0.0,0.0,54,0.00,,,0.00,WUHU216HW,2017-04-25 08:41:00,
2017-04-25 01:46:00,43.7,28.2,29.93,North,0,0.0,0.0,54,0.00,,,0.00,WUHU216HW,2017-04-25 08:46:00,
2017-04-25 01:51:00,43.6,28.0,29.93,North,0,0.0,0.0,54,0.00,,,0.00,WUHU216HW,2017-04-25 08:51:00,
2017-04-25 01:56:00,43.6,28.0,29.93,North,0,0.0,0.0,54,0.00,,,0.00,WUHU216HW,2017-04-25 08:56:00,
2017-04-25 02:01:00,43.6,27.6,29.93,North,0,0.0,0.0,53,0.00,,,0.00,WUHU216HW,2017-04-25 09:01:00,
2017-04-25 02:06:00,43.7,27.7,29.94,North,0,0.0,0.0,53,0.00,,,0.00,WUHU216HW,2017-04-25 09:06:00,
2017-04-25 02:11:00,43.6,28.0,29.94,North,0,0.0,0.0,54,0.00,,,0.00,WUHU216HW,2017-04-25 09:11:00,
2017-04-25 02:16:00,43.6,28.0,29.94,North,0,0.0,0.0,54,0.00,,,0.00,WUHU216HW,2017-04-25 09:16:00,
2017-04-25 02:21:00,43.6,28.0,29.94,North,0,0.0,0.0,54,0.00,,,0.00,WUHU216HW,2017-04-25 09:21:00,
2017-04-25 02:26:00,43.4,28.3,29.95,North,0,0.0,0.0,55,0.00,,,0.00,WUHU216HW,2017-04-25 09:26:00,
2017-04-25 02:31:00,43.4,28.3,29.95,North,0,0.0,0.0,55,0.00,,,0.00,WUHU216HW,2017-04-25 09:31:00,
2017-04-25 02:56:00,42.8,27.7,29.94,North,0,0.0,0.0,55,0.00,,,0.00,WUHU216HW,2017-04-25 09:56:00,
2017-04-25 03:01:00,42.7,28.0,29.94,North,0,0.0,0.0,56,0.00,,,0.00,WUHU216HW,2017-04-25 10:01:00,
2017-04-25 03:06:00,42.7,28.0,29.94,North,0,0.0,0.0,56,0.00,,,0.00,WUHU216HW,2017-04-25 10:06:00,
2017-04-25 03:11:00,42.5,27.8,29.94,North,0,0.0,0.0,56,0.00,,,0.00,WUHU216HW,2017-04-25 10:11:00,
2017-04-25 03:16:00,42.5,27.8,29.94,North,0,0.0,0.0,56,0.00,,,0.00,WUHU216HW,2017-04-25 10:16:00,
2017-04-25 03:21:00,42.5,28.3,29.94,North,0,0.0,0.0,57,0.00,,,0.00,WUHU216HW,2017-04-25 10:21:00,
2017-04-25 03:26:00,42.3,28.1,29.94,North,0,0.0,0.0,57,0.00,,,0.00,WUHU216HW,2017-04-25 10:26:00,
2017-04-25 03:31:00,42.1,27.9,29.94,North,0,0.0,0.0,57,0.00,,,0.00,WUHU216HW,2017-04-25 10:31:00,
2017-04-25 03:36:00,42.1,27.9,29.94,North,0,0.0,0.0,57,0.00,,,0.00,WUHU216HW,2017-04-25 10:36:00,
2017-04-25 03:41:00,41.9,27.7,29.94,North,0,0.0,0.0,57,0.00,,,0.00,WUHU216HW,2017-04-25 10:41:00,
2017-04-25 03:46:00,41.9,27.7,29.94,North,0,0.0,0.0,57,0.00,,,0.00,WUHU216HW,2017-04-25 10:46:00,
2017-04-25 03:51:00,41.8,27.5,29.95,North,0,0.0,0.0,57,0.00,,,0.00,WUHU216HW,2017-04-25 10:51:00,
2017-04-25 03:56:00,41.6,27.5,29.95,North,0,0.0,0.0,57,0.00,,,0.00,WUHU216HW,2017-04-25 10:56:00,
2017-04-25 04:01:00,41.6,27.5,29.95,North,0,0.0,0.0,57,0.00,,,0.00,WUHU216HW,2017-04-25 11:01:00,
2017-04-25 04:06:00,41.4,27.3,29.95,North,0,0.0,0.0,57,0.00,,,0.00,WUHU216HW,2017-04-25 11:06:00,
2017-04-25 04:11:00,41.4,27.3,29.95,North,0,0.0,0.0,57,0.00,,,0.00,WUHU216HW,2017-04-25 11:11:00,
2017-04-25 04:16:00,41.4,26.8,29.95,North,0,0.0,0.0,56,0.00,,,0.00,WUHU216HW,2017-04-25 11:16:00,
2017-04-25 04:21:00,41.2,26.7,29.95,North,0,0.0,0.0,56,0.00,,,0.00,WUHU216HW,2017-04-25 11:21:00,
2017-04-25 04:26:00,41.2,27.1,29.95,North,0,0.0,0.0,57,0.00,,,0.00,WUHU216HW,2017-04-25 11:26:00,
2017-04-25 04:31:00,41.2,27.1,29.95,North,0,0.0,0.0,57,0.00,,,0.00,WUHU216HW,2017-04-25 11:31:00,
2017-04-25 04:36:00,41.0,26.9,29.95,North,0,0.0,0.0,57,0.00,,,0.00,WUHU216HW,2017-04-25 11:36:00,
2017-04-25 04:41:00,40.9,26.7,29.95,North,0,0.0,0.0,57,0.00,,,0.00,WUHU216HW,2017-04-25 11:41:00,
2017-04-25 04:46:00,40.9,26.3,29.95,North,0,0.0,0.0,56,0.00,,,0.00,WUHU216HW,2017-04-25 11:46:00,
2017-04-25 04:51:00,41.0,26.5,29.95,North,0,0.0,0.0,56,0.00,,,0.00,WUHU216HW,2017-04-25 11:51:00,
2017-04-25 04:56:00,41.2,26.7,29.95,North,0,0.0,0.0,56,0.00,,,0.00,WUHU216HW,2017-04-25 11:56:00,
2017-04-25 05:01:00,41.2,26.7,29.95,North,0,0.0,0.0,56,0.00,,,0.00,WUHU216HW,2017-04-25 12:01:00,
2017-04-25 05:12:00,41.0,26.5,29.95,North,0,0.0,0.0,56,0.00,,,0.00,WUHU216HW,2017-04-25 12:12:00,
2017-04-25 05:17:00,41.0,26.5,29.94,North,0,0.0,0.0,56,0.00,,,0.00,WUHU216HW,2017-04-25 12:17:00,
2017-04-25 05:22:00,41.0,26.0,29.95,North,0,0.0,0.0,55,0.00,,,0.00,WUHU216HW,2017-04-25 12:22:00,
2017-04-25 05:27:00,41.0,26.0,29.95,North,0,0.0,0.0,55,0.00,,,0.00,WUHU216HW,2017-04-25 12:27:00,
2017-04-25 05:32:00,41.0,26.0,29.95,North,0,0.0,0.0,55,0.00,,,0.00,WUHU216HW,2017-04-25 12:32:00,
2017-04-25 05:37:00,40.9,26.3,29.95,North,0,0.0,0.0,56,0.00,,,0.00,WUHU216HW,2017-04-25 12:37:00,
2017-04-25 05:42:00,40.7,26.1,29.95,North,0,0.0,0.0,56,0.00,,,0.00,WUHU216HW,2017-04-25 12:42:00,
2017-04-25 05:47:00,40.5,26.4,29.95,North,0,0.0,0.0,57,0.00,,,0.00,WUHU216HW,2017-04-25 12:47:00,
2017-04-25 05:52:00,40.3,26.2,29.95,North,0,0.0,0.0,57,0.00,,,0.00,WUHU216HW,2017-04-25 12:52:00,
2017-04-25 05:57:00,40.1,26.5,29.95,North,0,0.0,0.0,58,0.00,,,0.00,WUHU216HW,2017-04-25 12:57:00,
2017-04-25 06:02:00,40.0,25.8,29.95,North,0,0.0,0.0,57,0.00,,,0.00,WUHU216HW,2017-04-25 13:02:00,
2017-04-25 06:07:00,40.0,25.8,29.95,North,0,0.0,0.0,57,0.00,,,0.00,WUHU216HW,2017-04-25 13:07:00,
2017-04-25 06:12:00,40.0,25.8,29.95,North,0,0.0,0.0,57,0.00,,,0.00,WUHU216HW,2017-04-25 13:12:00,
2017-04-25 06:17:00,40.0,25.8,29.95,North,0,0.0,0.0,57,0.00,,,0.00,WUHU216HW,2017-04-25 13:17:00,
2017-04-25 06:22:00,39.8,25.7,29.96,North,0,0.0,0.0,57,0.00,,,0.00,WUHU216HW,2017-04-25 13:22:00,
2017-04-25 06:27:00,39.8,25.7,29.97,North,0,0.0,0.0,57,0.00,,,0.00,WUHU216HW,2017-04-25 13:27:00,
2017-04-25 06:32:00,39.6,25.5,29.97,North,0,0.0,0.0,57,0.00,,,0.00,WUHU216HW,2017-04-25 13:32:00,
2017-04-25 06:37:00,39.6,25.9,29.98,North,0,0.0,0.0,58,0.00,,,0.00,WUHU216HW,2017-04-25 13:37:00,
2017-04-25 06:42:00,39.6,25.5,29.98,North,0,0.0,0.0,57,0.00,,,0.00,WUHU216HW,2017-04-25 13:42:00,
2017-04-25 06:47:00,40.0,25.8,29.98,North,0,0.0,0.0,57,0.00,,,0.00,WUHU216HW,2017-04-25 13:47:00,
2017-04-25 06:52:00,40.0,26.3,29.98,North,0,0.0,0.0,58,0.00,,,0.00,WUHU216HW,2017-04-25 13:52:00,
2017-04-25 06:57:00,40.3,26.6,29.98,North,0,0.0,0.0,58,0.00,,,0.00,WUHU216HW,2017-04-25 13:57:00,
2017-04-25 07:02:00,40.5,26.8,29.98,North,0,0.0,0.0,58,0.00,,,0.00,WUHU216HW,2017-04-25 14:02:00,
2017-04-25 07:07:00,40.5,26.8,29.98,North,0,0.0,0.0,58,0.00,,,0.00,WUHU216HW,2017-04-25 14:07:00,
2017-04-25 07:12:00,40.7,27.0,29.98,North,0,0.0,0.0,58,0.00,,,0.00,WUHU216HW,2017-04-25 14:12:00,
2017-04-25 07:17:00,40.9,27.2,29.99,North,0,0.0,0.0,58,0.00,,,0.00,WUHU216HW,2017-04-25 14:17:00,
2017-04-25 07:22:00,41.0,27.4,29.99,North,0,0.0,0.0,58,0.00,,,0.00,WUHU216HW,2017-04-25 14:22:00,
2017-04-25 07:27:00,41.0,26.9,29.98,North,0,0.0,0.0,57,0.00,,,0.00,WUHU216HW,2017-04-25 14:27:00,
2017-04-25 07:32:00,41.2,27.1,29.99,North,0,0.0,0.0,57,0.00,,,0.00,WUHU216HW,2017-04-25 14:32:00,
2017-04-25 07:37:00,41.4,27.3,29.98,North,0,0.0,0.0,57,0.00,,,0.00,WUHU216HW,2017-04-25 14:37:00,
2017-04-25 07:42:00,41.6,27.0,29.98,North,0,0.0,0.0,56,0.00,,,0.00,WUHU216HW,2017-04-25 14:42:00,
2017-04-25 07:47:00,41.9,27.3,29.98,North,0,0.0,0.0,56,0.00,,,0.00,WUHU216HW,2017-04-25 14:47:00,
2017-04-25 07:52:00,42.1,27.0,29.98,North,0,0.0,0.0,55,0.00,,,0.00,WUHU216HW,2017-04-25 14:52:00,
2017-04-25 07:57:00,42.5,26.9,29.98,North,0,0.0,0.0,54,0.00,,,0.00,WUHU216HW,2017-04-25 14:57:00,
2017-04-25 08:02:00,42.8,26.8,29.98,North,0,0.0,0.0,53,0.00,,,0.00,WUHU216HW,2017-04-25 15:02:00,
2017-04-25 08:07:00,43.0,27.0,29.98,North,0,0.0,0.0,53,0.00,,,0.00,WUHU216HW,2017-04-25 15:07:00,
2017-04-25 08:12:00,43.2,27.2,29.98,North,0,0.0,0.0,53,0.00,,,0.00,WUHU216HW,2017-04-25 15:12:00,
2017-04-25 08:17:00,43.4,26.9,29.98,North,0,0.0,0.0,52,0.00,,,0.00,WUHU216HW,2017-04-25 15:17:00,
2017-04-25 08:22:00,43.6,27.1,29.98,North,0,0.0,0.0,52,0.00,,,0.00,WUHU216HW,2017-04-25 15:22:00,
2017-04-25 08:27:00,43.7,27.3,29.98,North,0,0.0,0.0,52,0.00,,,0.00,WUHU216HW,2017-04-25 15:27:00,
2017-04-25 08:32:00,43.9,27.5,29.98,North,0,0.0,0.0,52,0.00,,,0.00,WUHU216HW,2017-04-25 15:32:00,
2017-04-25 08:37:00,44.3,26.8,29.98,North,0,0.0,0.0,50,0.00,,,0.00,WUHU216HW,2017-04-25 15:37:00,
2017-04-25 08:42:00,44.3,26.3,29.99,North,0,0.0,0.0,49,0.00,,,0.00,WUHU216HW,2017-04-25 15:42:00,
2017-04-25 08:47:00,44.5,27.0,29.99,North,0,0.0,0.0,50,0.00,,,0.00,WUHU216HW,2017-04-25 15:47:00,
2017-04-25 08:52:00,44.8,27.4,29.99,North,0,0.0,0.0,50,0.00,,,0.00,WUHU216HW,2017-04-25 15:52:00,
2017-04-25 08:57:00,45.0,27.6,30.00,North,0,0.0,0.0,50,0.00,,,0.00,WUHU216HW,2017-04-25 15:57:00,
2017-04-25 09:02:00,45.5,27.5,30.00,North,0,0.0,0.0,49,0.00,,,0.00,WUHU216HW,2017-04-25 16:02:00,
2017-04-25 09:07:00,45.7,27.1,30.01,North,0,0.0,0.0,48,0.00,,,0.00,WUHU216HW,2017-04-25 16:07:00,
2017-04-25 09:12:00,46.1,27.4,30.01,North,0,0.0,0.0,48,0.00,,,0.00,WUHU216HW,2017-04-25 16:12:00,
2017-04-25 09:17:00,46.4,27.7,30.01,North,0,0.0,0.0,48,0.00,,,0.00,WUHU216HW,2017-04-25 16:17:00,
2017-04-25 09:22:00,46.8,28.1,30.01,North,0,0.0,0.0,48,0.00,,,0.00,WUHU216HW,2017-04-25 16:22:00,
2017-04-25 09:27:00,47.2,28.9,30.01,North,0,0.0,0.0,49,0.00,,,0.00,WUHU216HW,2017-04-25 16:27:00,
2017-04-25 09:32:00,47.3,29.1,30.01,North,0,0.0,0.0,49,0.00,,,0.00,WUHU216HW,2017-04-25 16:32:00,
2017-04-25 09:37:00,47.7,29.4,30.01,North,0,0.0,0.0,49,0.00,,,0.00,WUHU216HW,2017-04-25 16:37:00,
2017-04-25 09:42:00,47.7,29.4,30.01,North,0,0.0,0.0,49,0.00,,,0.00,WUHU216HW,2017-04-25 16:42:00,
2017-04-25 09:47:00,47.9,29.5,30.01,North,0,0.0,0.0,49,0.00,,,0.00,WUHU216HW,2017-04-25 16:47:00,
2017-04-25 09:52:00,48.2,29.3,30.02,North,0,0.0,0.0,48,0.00,,,0.00,WUHU216HW,2017-04-25 16:52:00,
2017-04-25 09:57:00,48.6,29.7,30.01,North,0,0.0,0.0,48,0.00,,,0.00,WUHU216HW,2017-04-25 16:57:00,
2017-04-25 10:02:00,48.6,29.2,30.01,North,0,0.0,0.0,47,0.00,,,0.00,WUHU216HW,2017-04-25 17:02:00,
2017-04-25 10:07:00,49.0,29.5,30.01,North,0,0.0,0.0,47,0.00,,,0.00,WUHU216HW,2017-04-25 17:07:00,
2017-04-25 10:12:00,49.5,29.4,30.01,North,0,0.0,0.0,46,0.00,,,0.00,WUHU216HW,2017-04-25 17:12:00,
2017-04-25 10:17:00,50.0,29.4,30.01,North,0,0.0,0.0,45,0.00,,,0.00,WUHU216HW,2017-04-25 17:17:00,
2017-04-25 10:22:00,50.4,29.8,30.01,North,0,0.0,0.0,45,0.00,,,0.00,WUHU216HW,2017-04-25 17:22:00,
2017-04-25 10:27:00,50.4,29.2,30.01,North,0,0.0,0.0,44,0.00,,,0.00,WUHU216HW,2017-04-25 17:27:00,
2017-04-25 10:32:00,50.6,29.3,30.01,North,0,0.0,0.0,44,0.00,,,0.00,WUHU216HW,2017-04-25 17:32:00,
2017-04-25 10:37:00,50.9,29.7,30.01,North,0,0.0,0.0,44,0.00,,,0.00,WUHU216HW,2017-04-25 17:37:00,
2017-04-25 10:42:00,51.3,30.0,30.01,North,0,0.0,0.0,44,0.00,,,0.00,WUHU216HW,2017-04-25 17:42:00,
2017-04-25 10:47:00,51.7,29.8,30.01,North,0,0.0,0.0,43,0.00,,,0.00,WUHU216HW,2017-04-25 17:47:00,
2017-04-25 10:52:00,51.7,29.8,30.01,North,0,0.0,0.0,43,0.00,,,0.00,WUHU216HW,2017-04-25 17:52:00,
2017-04-25 10:57:00,52.2,30.2,30.01,North,0,0.0,0.0,43,0.00,,,0.00,WUHU216HW,2017-04-25 17:57:00,
2017-04-25 11:02:00,52.7,30.8,30.01,North,0,0.0,0.0,43,0.00,,,0.00,WUHU216HW,2017-04-25 18:02:00,
2017-04-25 11:07:00,53.1,31.1,30.00,North,0,0.0,0.0,43,0.00,,,0.00,WUHU216HW,2017-04-25 18:07:00,
2017-04-25 11:12:00,53.1,30.5,30.00,North,0,0.0,0.0,42,0.00,,,0.00,WUHU216HW,2017-04-25 18:12:00,
2017-04-25 11:17:00,53.3,29.5,30.00,North,0,0.0,0.0,40,0.00,,,0.00,WUHU216HW,2017-04-25 18:17:00,
2017-04-25 11:22:00,53.1,30.0,30.00,North,0,0.0,0.0,41,0.00,,,0.00,WUHU216HW,2017-04-25 18:22:00,
2017-04-25 11:27:00,53.6,30.4,30.00,North,0,0.0,0.0,41,0.00,,,0.00,WUHU216HW,2017-04-25 18:27:00,
2017-04-25 11:32:00,54.5,30.7,30.00,North,0,0.0,0.0,40,0.00,,,0.00,WUHU216HW,2017-04-25 18:32:00,
2017-04-25 11:37:00,55.1,31.1,30.00,North,0,0.0,0.0,40,0.00,,,0.00,WUHU216HW,2017-04-25 18:37:00,
2017-04-25 11:42:00,55.6,31.7,30.00,North,0,0.0,0.0,40,0.00,,,0.00,WUHU216HW,2017-04-25 18:42:00,
2017-04-25 11:47:00,55.8,31.2,30.00,North,0,0.0,0.0,39,0.00,,,0.00,WUHU216HW,2017-04-25 18:47:00,
2017-04-25 11:52:00,55.8,31.9,30.00,North,0,0.0,0.0,40,0.00,,,0.00,WUHU216HW,2017-04-25 18:52:00,
2017-04-25 11:57:00,56.2,30.8,30.00,North,0,0.0,0.0,38,0.00,,,0.00,WUHU216HW,2017-04-25 18:57:00,
2017-04-25 12:02:00,56.5,31.1,29.99,North,0,0.0,0.0,38,0.00,,,0.00,WUHU216HW,2017-04-25 19:02:00,
2017-04-25 12:07:00,56.9,30.7,29.99,North,0,0.0,0.0,37,0.00,,,0.00,WUHU216HW,2017-04-25 19:07:00,
2017-04-25 12:12:00,57.1,28.7,29.99,North,0,0.0,0.0,34,0.00,,,0.00,WUHU216HW,2017-04-25 19:12:00,
2017-04-25 12:17:00,56.5,28.3,30.00,North,0,0.0,0.0,34,0.00,,,0.00,WUHU216HW,2017-04-25 19:17:00,
2017-04-25 12:22:00,55.8,28.4,30.00,North,0,0.0,0.0,35,0.00,,,0.00,WUHU216HW,2017-04-25 19:22:00,
2017-04-25 12:27:00,56.2,30.1,30.00,North,0,0.0,0.0,37,0.00,,,0.00,WUHU216HW,2017-04-25 19:27:00,
2017-04-25 12:32:00,56.2,29.3,30.00,North,0,0.0,0.0,36,0.00,,,0.00,WUHU216HW,2017-04-25 19:32:00,
2017-04-25 12:37:00,56.2,25.1,29.99,North,0,0.0,0.0,30,0.00,,,0.00,WUHU216HW,2017-04-25 19:37:00,
2017-04-25 12:42:00,56.9,27.9,29.99,North,0,0.0,0.0,33,0.00,,,0.00,WUHU216HW,2017-04-25 19:42:00,
2017-04-25 12:47:00,57.4,27.0,29.98,North,0,0.0,0.0,31,0.00,,,0.00,WUHU216HW,2017-04-25 19:47:00,
2017-04-25 12:52:00,57.4,28.4,29.98,North,0,0.0,0.0,33,0.00,,,0.00,WUHU216HW,2017-04-25 19:52:00,
2017-04-25 12:53:00,57.4,28.4,29.98,North,0,0.0,0.0,33,0.00,,,0.00,WUHU216HW,2017-04-25 19:53:00,
2017-04-25 12:58:00,57.6,27.1,29.98,North,0,0.0,0.0,31,0.00,,,0.00,WUHU216HW,2017-04-25 19:58:00,
2017-04-25 13:03:00,58.0,26.7,29.98,North,0,0.0,0.0,30,0.00,,,0.00,WUHU216HW,2017-04-25 20:03:00,
2017-04-25 13:08:00,58.3,27.8,29.97,North,0,0.0,0.0,31,0.00,,,0.00,WUHU216HW,2017-04-25 20:08:00,
2017-04-25 13:13:00,59.0,29.2,29.97,North,0,0.0,0.0,32,0.00,,,0.00,WUHU216HW,2017-04-25 20:13:00,
2017-04-25 13:18:00,59.8,28.3,29.97,North,0,0.0,0.0,30,0.00,,,0.00,WUHU216HW,2017-04-25 20:18:00,
2017-04-25 13:23:00,59.8,28.3,29.97,North,0,0.0,0.0,30,0.00,,,0.00,WUHU216HW,2017-04-25 20:23:00,
2017-04-25 13:46:00,60.8,25.4,29.97,North,0,0.0,0.0,26,0.00,,,0.00,WUHU216HW,2017-04-25 20:46:00,
2017-04-25 13:51:00,61.0,26.5,29.97,North,0,0.0,0.0,27,0.00,,,0.00,WUHU216HW,2017-04-25 20:51:00,
2017-04-25 13:56:00,61.9,27.3,29.96,North,0,0.0,0.0,27,0.00,,,0.00,WUHU216HW,2017-04-25 20:56:00,
2017-04-25 14:01:00,62.6,26.9,29.96,North,0,0.0,0.0,26,0.00,,,0.00,WUHU216HW,2017-04-25 21:01:00,
2017-04-25 14:06:00,62.3,25.7,29.96,North,0,0.0,0.0,25,0.00,,,0.00,WUHU216HW,2017-04-25 21:06:00,
2017-04-25 14:11:00,63.2,26.4,29.96,North,0,0.0,0.0,25,0.00,,,0.00,WUHU216HW,2017-04-25 21:11:00,
2017-04-25 14:16:00,64.1,27.2,29.95,North,0,0.0,0.0,25,0.00,,,0.00,WUHU216HW,2017-04-25 21:16:00,
2017-04-25 14:21:00,64.4,28.4,29.96,North,0,0.0,0.0,26,0.00,,,0.00,WUHU216HW,2017-04-25 21:21:00,
2017-04-25 14:26:00,65.0,28.9,29.96,North,0,0.0,0.0,26,0.00,,,0.00,WUHU216HW,2017-04-25 21:26:00,
2017-04-25 14:31:00,65.0,28.9,29.95,North,0,0.0,0.0,26,0.00,,,0.00,WUHU216HW,2017-04-25 21:31:00,
2017-04-25 14:36:00,64.1,27.2,29.95,North,0,0.0,0.0,25,0.00,,,0.00,WUHU216HW,2017-04-25 21:36:00,
2017-04-25 14:41:00,63.7,26.8,29.95,North,0,0.0,0.0,25,0.00,,,0.00,WUHU216HW,2017-04-25 21:41:00,
2017-04-25 14:46:00,63.9,27.0,29.95,North,0,0.0,0.0,25,0.00,,,0.00,WUHU216HW,2017-04-25 21:46:00,
2017-04-25 14:51:00,64.1,27.2,29.95,North,0,0.0,0.0,25,0.00,,,0.00,WUHU216HW,2017-04-25 21:51:00,
2017-04-25 14:56:00,63.9,27.0,29.95,North,0,0.0,0.0,25,0.00,,,0.00,WUHU216HW,2017-04-25 21:56:00,
2017-04-25 15:01:00,64.3,30.2,29.95,North,0,0.0,0.0,28,0.00,,,0.00,WUHU216HW,2017-04-25 22:01:00,
2017-04-25 15:06:00,64.8,30.8,29.95,North,0,0.0,0.0,28,0.00,,,0.00,WUHU216HW,2017-04-25 22:06:00,
2017-04-25 15:11:00,65.9,32.7,29.95,North,0,0.0,0.0,29,0.00,,,0.00,WUHU216HW,2017-04-25 22:11:00,
2017-04-25 15:16:00,65.7,31.5,29.95,North,0,0.0,0.0,28,0.00,,,0.00,WUHU216HW,2017-04-25 22:16:00,
2017-04-25 15:21:00,65.5,32.4,29.94,North,0,0.0,0.0,29,0.00,,,0.00,WUHU216HW,2017-04-25 22:21:00,
2017-04-25 15:26:00,65.3,32.2,29.94,North,0,0.0,0.0,29,0.00,,,0.00,WUHU216HW,2017-04-25 22:26:00,
2017-04-25 15:31:00,64.4,32.4,29.94,North,0,0.0,0.0,30,0.00,,,0.00,WUHU216HW,2017-04-25 22:31:00,
2017-04-25 15:36:00,63.7,31.8,29.95,North,0,0.0,0.0,30,0.00,,,0.00,WUHU216HW,2017-04-25 22:36:00,
2017-04-25 15:41:00,64.3,32.2,29.94,North,0,0.0,0.0,30,0.00,,,0.00,WUHU216HW,2017-04-25 22:41:00,
2017-04-25 15:46:00,65.3,33.2,29.94,North,0,0.0,0.0,30,0.00,,,0.00,WUHU216HW,2017-04-25 22:46:00,
2017-04-25 15:51:00,65.9,32.7,29.94,North,0,0.0,0.0,29,0.00,,,0.00,WUHU216HW,2017-04-25 22:51:00,
2017-04-25 15:56:00,65.7,33.6,29.94,North,0,0.0,0.0,30,0.00,,,0.00,WUHU216HW,2017-04-25 22:56:00,
2017-04-25 16:01:00,65.5,32.4,29.93,North,0,0.0,0.0,29,0.00,,,0.00,WUHU216HW,2017-04-25 23:01:00,
2017-04-25 16:06:00,65.3,33.2,29.93,North,0,0.0,0.0,30,0.00,,,0.00,WUHU216HW,2017-04-25 23:06:00,
2017-04-25 16:11:00,65.0,32.9,29.93,North,0,0.0,0.0,30,0.00,,,0.00,WUHU216HW,2017-04-25 23:11:00,
2017-04-25 16:16:00,65.3,33.9,29.93,North,0,0.0,0.0,31,0.00,,,0.00,WUHU216HW,2017-04-25 23:16:00,
2017-04-25 16:21:00,65.3,33.9,29.93,North,0,0.0,0.0,31,0.00,,,0.00,WUHU216HW,2017-04-25 23:21:00,
2017-04-25 16:26:00,66.6,35.0,29.94,North,0,0.0,0.0,31,0.00,,,0.00,WUHU216HW,2017-04-25 23:26:00,
2017-04-25 16:31:00,66.6,35.0,29.93,North,0,0.0,0.0,31,0.00,,,0.00,WUHU216HW,2017-04-25 23:31:00,
2017-04-25 16:36:00,65.9,35.8,29.93,North,0,0.0,0.0,33,0.00,,,0.00,WUHU216HW,2017-04-25 23:36:00,
2017-04-25 16:41:00,65.9,35.8,29.93,North,0,0.0,0.0,33,0.00,,,0.00,WUHU216HW,2017-04-25 23:41:00,
2017-04-25 16:46:00,65.5,34.8,29.93,North,0,0.0,0.0,32,0.00,,,0.00,WUHU216HW,2017-04-25 23:46:00,
2017-04-25 16:51:00,65.7,36.5,29.93,North,0,0.0,0.0,34,0.00,,,0.00,WUHU216HW,2017-04-25 23:51:00,
2017-04-25 16:56:00,66.4,36.4,29.94,North,0,0.0,0.0,33,0.00,,,0.00,WUHU216HW,2017-04-25 23:56:00,
2017-04-25 17:01:00,67.0,37.5,29.93,North,0,0.0,0.0,34,0.00,,,0.00,WUHU216HW,2017-04-26 00:01:00,
2017-04-25 17:06:00,67.9,38.3,29.94,North,0,0.0,0.0,34,0.00,,,0.00,WUHU216HW,2017-04-26 00:06:00,
2017-04-25 17:11:00,68.0,37.7,29.94,North,0,0.0,0.0,33,0.00,,,0.00,WUHU216HW,2017-04-26 00:11:00,
2017-04-25 17:16:00,67.7,38.1,29.94,North,0,0.0,0.0,34,0.00,,,0.00,WUHU216HW,2017-04-26 00:16:00,
2017-04-25 17:21:00,66.6,37.2,29.94,North,0,0.0,0.0,34,0.00,,,0.00,WUHU216HW,2017-04-26 00:21:00,
2017-04-25 17:26:00,66.2,36.9,29.94,North,0,0.0,0.0,34,0.00,,,0.00,WUHU216HW,2017-04-26 00:26:00,
2017-04-25 17:31:00,65.2,37.4,29.94,North,0,0.0,0.0,36,0.00,,,0.00,WUHU216HW,2017-04-26 00:31:00,
2017-04-25 17:36:00,64.4,37.4,29.95,North,0,0.0,0.0,37,0.00,,,0.00,WUHU216HW,2017-04-26 00:36:00,
2017-04-25 17:41:00,64.1,37.1,29.95,North,0,0.0,0.0,37,0.00,,,0.00,WUHU216HW,2017-04-26 00:41:00,
2017-04-25 17:46:00,64.3,37.3,29.95,North,0,0.0,0.0,37,0.00,,,0.00,WUHU216HW,2017-04-26 00:46:00,
2017-04-25 17:51:00,63.7,37.5,29.95,North,0,0.0,0.0,38,0.00,,,0.00,WUHU216HW,2017-04-26 00:51:00,
2017-04-25 17:56:00,63.0,37.6,29.95,North,0,0.0,0.0,39,0.00,,,0.00,WUHU216HW,2017-04-26 00:56:00,
2017-04-25 18:01:00,62.3,37.6,29.95,North,0,0.0,0.0,40,0.00,,,0.00,WUHU216HW,2017-04-26 01:01:00,
2017-04-25 18:06:00,61.9,37.9,29.95,North,0,0.0,0.0,41,0.00,,,0.00,WUHU216HW,2017-04-26 01:06:00,
2017-04-25 18:11:00,61.9,37.9,29.96,North,0,0.0,0.0,41,0.00,,,0.00,WUHU216HW,2017-04-26 01:11:00,
2017-04-25 18:16:00,61.9,37.9,29.96,North,0,0.0,0.0,41,0.00,,,0.00,WUHU216HW,2017-04-26 01:16:00,
2017-04-25 18:21:00,61.9,37.9,29.96,North,0,0.0,0.0,41,0.00,,,0.00,WUHU216HW,2017-04-26 01:21:00,
2017-04-25 18:42:00,59.4,38.0,29.97,North,0,0.0,0.0,45,0.00,,,0.00,WUHU216HW,2017-04-26 01:42:00,
2017-04-25 18:43:00,59.2,37.8,29.97,North,0,0.0,0.0,45,0.00,,,0.00,WUHU216HW,2017-04-26 01:43:00,
2017-04-25 18:48:00,59.0,38.2,29.97,North,0,0.0,0.0,46,0.00,,,0.00,WUHU216HW,2017-04-26 01:48:00,
2017-04-25 18:53:00,58.7,38.4,29.97,North,0,0.0,0.0,47,0.00,,,0.00,WUHU216HW,2017-04-26 01:53:00,
2017-04-25 18:58:00,58.3,38.2,29.97,North,0,0.0,0.0,47,0.00,,,0.00,WUHU216HW,2017-04-26 01:58:00,
2017-04-25 19:03:00,58.1,38.5,29.97,North,0,0.0,0.0,48,0.00,,,0.00,WUHU216HW,2017-04-26 02:03:00,
2017-04-25 19:08:00,58.0,38.3,29.97,North,0,0.0,0.0,48,0.00,,,0.00,WUHU216HW,2017-04-26 02:08:00,
2017-04-25 19:13:00,57.8,38.8,29.97,North,0,0.0,0.0,49,0.00,,,0.00,WUHU216HW,2017-04-26 02:13:00,
2017-04-25 19:18:00,57.4,38.4,29.98,North,0,0.0,0.0,49,0.00,,,0.00,WUHU216HW,2017-04-26 02:18:00,
2017-04-25 19:23:00,57.4,39.1,29.98,North,0,0.0,0.0,50,0.00,,,0.00,WUHU216HW,2017-04-26 02:23:00,